| time (UTC) | temp C | wind direction | speed KPH | gust KPH | rain 1hr cm | rain 24hr cm | rain mn cm | humidity % | barometer mb |
| 20260508033036 | 7 | 186 | 0.0 | 3.2 | 0.00 | 2.31 | 0.00 | 100 | 1002.6 |
| 20260508031526 | 7 | 186 | 0.0 | 0.0 | 0.00 | 2.31 | 0.00 | 100 | 1002.6 |
| 20260508030036 | 7 | 186 | 1.6 | 4.8 | 0.00 | 2.31 | 0.00 | 100 | 1002.8 |
| 20260508024524 | 7 | 186 | 1.6 | 6.4 | 0.00 | 2.31 | 2.31 | 100 | 1002.6 |
| 20260508023036 | 7 | 185 | 3.2 | 6.4 | 0.00 | 2.31 | 2.31 | 100 | 1002.5 |
| 20260508021522 | 7 | 182 | 1.6 | 8.0 | 0.00 | 2.31 | 2.31 | 100 | 1002.5 |
| 20260508020021 | 7 | 186 | 3.2 | 9.7 | 0.00 | 2.31 | 2.31 | 100 | 1002.5 |
| 20260508014519 | 7 | 150 | 3.2 | 9.7 | 0.03 | 2.31 | 2.31 | 100 | 1002.6 |
| 20260508013020 | 7 | 182 | 1.6 | 6.4 | 0.03 | 2.31 | 2.31 | 100 | 1002.5 |
| 20260508011518 | 7 | 181 | 3.2 | 9.7 | 0.03 | 2.31 | 2.31 | 100 | 1002.7 |
| 20260508010033 | 8 | 187 | 1.6 | 4.8 | 0.03 | 2.31 | 2.31 | 100 | 1002.7 |
| 20260508004522 | 8 | 186 | 4.8 | 9.7 | 0.00 | 2.31 | 2.31 | 100 | 1003.1 |
| 20260508003020 | 8 | 185 | 6.4 | 8.0 | 0.00 | 2.31 | 2.31 | 100 | 1003.0 |
| 20260508001525 | 8 | 173 | 6.4 | 12.9 | 0.00 | 2.31 | 2.31 | 100 | 1002.8 |
| 20260508000019 | 8 | 173 | 1.6 | 8.0 | 0.00 | 2.31 | 2.31 | 100 | 1003.0 |
| 20260507234512 | 8 | 190 | 6.4 | 11.3 | 0.00 | 2.31 | 2.31 | 100 | 1003.3 |
| 20260507233012 | 8 | 192 | 4.8 | 12.9 | 0.03 | 2.31 | 2.31 | 100 | 1002.9 |
| 20260507231511 | 8 | 193 | 4.8 | 11.3 | 0.03 | 2.31 | 2.31 | 100 | 1003.3 |
| 20260507230012 | 8 | 207 | 4.8 | 14.5 | 0.03 | 2.31 | 2.31 | 100 | 1003.5 |
| 20260507224511 | 8 | 148 | 8.0 | 12.9 | 0.03 | 2.31 | 2.31 | 100 | 1003.3 |
| 20260507223011 | 8 | 228 | 4.8 | 16.1 | 0.03 | 2.29 | 2.29 | 100 | 1003.6 |
| 20260507221510 | 8 | 182 | 4.8 | 19.3 | 0.03 | 2.29 | 2.29 | 100 | 1003.6 |
| 20260507220008 | 8 | 200 | 8.0 | 16.1 | 0.03 | 2.29 | 2.29 | 100 | 1003.8 |
| 20260507214508 | 8 | 189 | 8.0 | 20.9 | 0.05 | 2.29 | 2.29 | 100 | 1003.9 |
| 20260507213017 | 8 | 217 | 8.0 | 16.1 | 0.15 | 2.26 | 2.26 | 100 | 1003.8 |
| 20260507211506 | 8 | 164 | 11.3 | 25.7 | 0.41 | 2.26 | 2.26 | 100 | 1003.2 |
| 20260507210007 | 8 | 181 | 4.8 | 14.5 | 0.56 | 2.26 | 2.26 | 100 | 1004.2 |
| 20260507204607 | 7 | 157 | 6.4 | 12.9 | 0.69 | 2.21 | 2.21 | 100 | 1004.7 |
| 20260507203104 | 8 | 180 | 6.4 | 14.5 | 0.84 | 2.11 | 2.11 | 100 | 1004.9 |
| 20260507201555 | 8 | 217 | 6.4 | 12.9 | 0.99 | 1.88 | 1.88 | 100 | 1005.4 |
| 20260507200105 | 8 | 205 | 9.7 | 16.1 | 0.99 | 1.70 | 1.70 | 100 | 1006.1 |
| 20260507194553 | 8 | 188 | 11.3 | 25.7 | 1.02 | 1.52 | 1.52 | 100 | 1005.5 |
| 20260507193110 | 8 | 193 | 12.9 | 25.7 | 0.89 | 1.27 | 1.27 | 100 | 1005.4 |
| 20260507191556 | 9 | 202 | 16.1 | 30.6 | 0.56 | 0.89 | 0.89 | 100 | 1006.1 |
| 20260507190047 | 9 | 175 | 12.9 | 24.1 | 0.43 | 0.71 | 0.71 | 100 | 1006.3 |
| 20260507184545 | 8 | 167 | 6.4 | 24.1 | 0.23 | 0.48 | 0.48 | 100 | 1006.5 |
| 20260507183056 | 9 | 221 | 12.9 | 27.4 | 0.15 | 0.38 | 0.38 | 100 | 1006.4 |
| 20260507181544 | 9 | 216 | 12.9 | 29.0 | 0.05 | 0.30 | 0.30 | 100 | 1006.4 |
| 20260507180042 | 9 | 194 | 14.5 | 30.6 | 0.03 | 0.25 | 0.25 | 100 | 1006.3 |
| 20260507174541 | 9 | 175 | 14.5 | 29.0 | 0.00 | 0.23 | 0.23 | 100 | 1006.6 |
| 20260507173043 | 10 | 183 | 12.9 | 37.0 | 0.00 | 0.23 | 0.23 | 100 | 1006.9 |
| 20260507171541 | 10 | 211 | 11.3 | 32.2 | 0.00 | 0.23 | 0.23 | 100 | 1007.2 |
| 20260507170037 | 10 | 164 | 9.7 | 33.8 | 0.00 | 0.23 | 0.23 | 100 | 1007.3 |
| 20260507164533 | 10 | 175 | 9.7 | 27.4 | 0.00 | 0.23 | 0.23 | 100 | 1007.8 |
| 20260507163035 | 10 | 219 | 12.9 | 30.6 | 0.00 | 0.23 | 0.23 | 100 | 1008.2 |
| 20260507161528 | 10 | 195 | 11.3 | 30.6 | 0.00 | 0.23 | 0.23 | 100 | 1008.8 |
| 20260507160047 | 10 | 186 | 14.5 | 32.2 | 0.03 | 0.23 | 0.23 | 100 | 1009.1 |
| 20260507154525 | 10 | 153 | 16.1 | 38.6 | 0.03 | 0.23 | 0.23 | 100 | 1009.5 |
| 20260507153023 | 10 | 174 | 14.5 | 29.0 | 0.03 | 0.23 | 0.23 | 100 | 1009.6 |
| 20260507151522 | 10 | 169 | 14.5 | 32.2 | 0.03 | 0.23 | 0.23 | 100 | 1010.1 |
| 20260507150020 | 10 | 223 | 19.3 | 32.2 | 0.00 | 0.23 | 0.23 | 100 | 1010.5 |
| 20260507144526 | 10 | 145 | 16.1 | 29.0 | 0.03 | 0.23 | 0.23 | 100 | 1010.7 |
| 20260507143016 | 10 | 155 | 14.5 | 29.0 | 0.03 | 0.23 | 0.23 | 100 | 1011.1 |
| 20260507141519 | 9 | 178 | 11.3 | 22.5 | 0.03 | 0.23 | 0.23 | 100 | 1011.5 |
| 20260507140013 | 8 | 167 | 17.7 | 38.6 | 0.03 | 0.23 | 0.23 | 100 | 1011.5 |
| 20260507134512 | 9 | 173 | 16.1 | 33.8 | 0.00 | 0.20 | 0.20 | 100 | 1011.6 |
| 20260507133013 | 10 | 198 | 16.1 | 32.2 | 0.00 | 0.20 | 0.20 | 100 | 1011.5 |
| 20260507131510 | 10 | 221 | 14.5 | 27.4 | 0.00 | 0.20 | 0.20 | 100 | 1011.8 |
| 20260507130024 | 10 | 177 | 14.5 | 27.4 | 0.00 | 0.20 | 0.20 | 100 | 1011.4 |
| 20260507124507 | 9 | 192 | 17.7 | 33.8 | 0.00 | 0.20 | 0.20 | 100 | 1011.8 |
| 20260507123006 | 9 | 165 | 12.9 | 30.6 | 0.00 | 0.20 | 0.20 | 100 | 1011.8 |
| 20260507121502 | 9 | 163 | 14.5 | 27.4 | 0.00 | 0.20 | 0.20 | 100 | 1012.8 |
| 20260507120101 | 9 | 188 | 16.1 | 29.0 | 0.00 | 0.20 | 0.20 | 100 | 1013.1 |
| 20260507114603 | 9 | 157 | 19.3 | 30.6 | 0.00 | 0.20 | 0.20 | 100 | 1013.5 |
| 20260507113056 | 10 | 161 | 12.9 | 30.6 | 0.00 | 0.20 | 0.20 | 100 | 1013.2 |
| 20260507111600 | 10 | 166 | 11.3 | 27.4 | 0.00 | 0.20 | 0.20 | 100 | 1013.7 |
| 20260507110055 | 9 | 142 | 14.5 | 20.9 | 0.00 | 0.20 | 0.20 | 100 | 1013.3 |
| 20260507104554 | 9 | 205 | 12.9 | 25.7 | 0.00 | 0.20 | 0.20 | 100 | 1013.5 |
| 20260507103050 | 8 | 182 | 8.0 | 19.3 | 0.03 | 0.20 | 0.20 | 100 | 1013.9 |
| 20260507101601 | 8 | 190 | 9.7 | 25.7 | 0.03 | 0.20 | 0.20 | 100 | 1014.2 |
| 20260507100045 | 8 | 164 | 12.9 | 22.5 | 0.03 | 0.20 | 0.20 | 100 | 1014.0 |
| 20260507094544 | 8 | 178 | 6.4 | 16.1 | 0.03 | 0.20 | 0.20 | 100 | 1013.8 |
| 20260507093045 | 8 | 142 | 4.8 | 22.5 | 0.00 | 0.18 | 0.18 | 100 | 1014.0 |
| 20260507091540 | 8 | 184 | 12.9 | 22.5 | 0.03 | 0.18 | 0.18 | 100 | 1014.0 |
| 20260507090038 | 8 | 169 | 4.8 | 29.0 | 0.10 | 0.18 | 0.18 | 100 | 1014.3 |
| 20260507084533 | 8 | 173 | 11.3 | 22.5 | 0.15 | 0.18 | 0.18 | 100 | 1014.3 |
| 20260507083031 | 8 | 174 | 11.3 | 20.9 | 0.15 | 0.18 | 0.18 | 100 | 1014.2 |
| 20260507081535 | 9 | 154 | 11.3 | 22.5 | 0.15 | 0.15 | 0.15 | 100 | 1014.1 |
| 20260507080025 | 9 | 189 | 9.7 | 16.1 | 0.08 | 0.08 | 0.08 | 100 | 1014.4 |
| 20260507074522 | 9 | 180 | 8.0 | 19.3 | 0.05 | 0.05 | 0.05 | 99 | 1014.7 |
| 20260507073021 | 9 | 170 | 4.8 | 16.1 | 0.03 | 0.03 | 0.03 | 100 | 1014.8 |
| 20260507071519 | 9 | 208 | 4.8 | 11.3 | 0.00 | 0.00 | 0.00 | 100 | 1015.2 |
| 20260507070016 | 9 | 187 | 6.4 | 12.9 | 0.00 | 0.00 | 0.00 | 99 | 1015.3 |
| 20260507064515 | 9 | 179 | 6.4 | 16.1 | 0.00 | 0.00 | 0.00 | 100 | 1015.6 |
| 20260507063010 | 9 | 184 | 4.8 | 14.5 | 0.00 | 0.00 | 0.00 | 99 | 1015.6 |
| 20260507061509 | 9 | 186 | 8.0 | 17.7 | 0.00 | 0.00 | 0.00 | 99 | 1015.8 |
| 20260507060006 | 9 | 163 | 8.0 | 14.5 | 0.00 | 0.00 | 0.00 | 99 | 1016.0 |
| 20260507054503 | 9 | 192 | 8.0 | 14.5 | 0.00 | 0.00 | 0.00 | 99 | 1016.2 |
| 20260507053002 | 9 | 173 | 4.8 | 12.9 | 0.00 | 0.00 | 0.00 | 99 | 1016.5 |
| 20260507051558 | 9 | 172 | 6.4 | 14.5 | 0.00 | 0.00 | 0.00 | 99 | 1016.9 |
| 20260507050055 | 10 | 187 | 6.4 | 12.9 | 0.00 | 0.00 | 0.00 | 99 | 1017.2 |
| 20260507044552 | 10 | 157 | 3.2 | 12.9 | 0.00 | 0.00 | 0.00 | 99 | 1017.2 |
| 20260507043058 | 10 | 186 | 4.8 | 17.7 | 0.00 | 0.00 | 0.00 | 99 | 1017.7 |
| 20260507041557 | 10 | 187 | 8.0 | 14.5 | 0.00 | 0.00 | 0.00 | 99 | 1017.9 |
| 20260507040051 | 10 | 220 | 6.4 | 14.5 | 0.00 | 0.00 | 0.00 | 99 | 1018.1 |
| 20260507034544 | 10 | 208 | 11.3 | 16.1 | 0.00 | 0.00 | 0.00 | 99 | 1018.5 |